Location: Casilda
(33.0440°S, 61.1680°W)
Time: 09:19:26
(UTC-03:00)

ISS - Pass Details

Date: 10 August 2022
Orbit: 412 x 420 km, 51.6° (Epoch: 13 August)

Event Time Altitude Azimuth Distance (km) Brightness Sun altitude
Exits shadow 06:33:23 38° 255° (WSW) 668 -3.3 -15.9°
Maximum altitude 06:34:24 57° 313° (NW) 506 -3.6 -15.7°
Drops below altitude 10° 06:37:43 10° 32° (NNE) 1,502 -0.4 -15.0°
Sets 06:39:49 0° 36° (NE) 2,357 0.8 -14.6°
